| time (UTC) | temp C | wind direction | speed KPH | gust KPH | rain 1hr cm | rain 24hr cm | rain mn cm | humidity % | barometer mb |
| 20260507213517 | 6 | 180 | 3.2 | 6.4 | 0.00 | 0.13 | 0.13 | 94 | 1014.5 |
| 20260507212517 | 6 | 180 | 4.8 | 8.0 | 0.00 | 0.13 | 0.13 | 93 | 1014.5 |
| 20260507211517 | 6 | 180 | 3.2 | 6.4 | 0.00 | 0.13 | 0.13 | 93 | 1014.4 |
| 20260507210517 | 7 | 180 | 1.6 | 8.0 | 0.00 | 0.13 | 0.13 | 94 | 1014.4 |
| 20260507205517 | 7 | 203 | 3.2 | 6.4 | 0.00 | 0.13 | 0.13 | 93 | 1014.2 |
| 20260507204517 | 7 | 180 | 3.2 | 6.4 | 0.00 | 0.13 | 0.13 | 93 | 1014.2 |
| 20260507203517 | 7 | 180 | 4.8 | 6.4 | 0.00 | 0.13 | 0.13 | 93 | 1014.2 |
| 20260507202517 | 7 | 203 | 4.8 | 6.4 | 0.00 | 0.13 | 0.13 | 93 | 1014.1 |
| 20260507201517 | 7 | 203 | 4.8 | 6.4 | 0.00 | 0.13 | 0.13 | 92 | 1014.0 |
| 20260507200517 | 7 | 225 | 1.6 | 3.2 | 0.00 | 0.13 | 0.13 | 91 | 1013.8 |
| 20260507195517 | 8 | 180 | 3.2 | 8.0 | 0.00 | 0.13 | 0.13 | 91 | 1013.6 |
| 20260507194517 | 8 | 180 | 3.2 | 4.8 | 0.00 | 0.13 | 0.13 | 91 | 1013.6 |
| 20260507193517 | 8 | 180 | 3.2 | 4.8 | 0.00 | 0.13 | 0.13 | 90 | 1013.6 |
| 20260507192517 | 8 | 203 | 3.2 | 4.8 | 0.00 | 0.13 | 0.13 | 89 | 1013.6 |
| 20260507191517 | 8 | 180 | 3.2 | 4.8 | 0.00 | 0.13 | 0.13 | 89 | 1013.2 |
| 20260507190517 | 9 | 0.0 | 0.0 | 0.00 | 0.13 | 0.13 | 87 | 1013.1 | |
| 20260507185517 | 9 | 180 | 1.6 | 6.4 | 0.00 | 0.13 | 0.13 | 86 | 1013.1 |
| 20260507184517 | 10 | 0.0 | 0.0 | 0.00 | 0.13 | 0.13 | 85 | 1012.8 | |
| 20260507183517 | 10 | 0.0 | 1.6 | 0.00 | 0.13 | 0.13 | 84 | 1013.0 | |
| 20260507182517 | 11 | 0.0 | 0.0 | 0.00 | 0.13 | 0.13 | 83 | 1012.9 | |
| 20260507181517 | 11 | 0.0 | 1.6 | 0.00 | 0.13 | 0.13 | 81 | 1013.1 | |
| 20260507180517 | 12 | 0.0 | 0.0 | 0.00 | 0.13 | 0.13 | 80 | 1013.1 | |
| 20260507175517 | 12 | 45 | 3.2 | 6.4 | 0.00 | 0.13 | 0.13 | 77 | 1013.1 |
| 20260507174517 | 12 | 23 | 3.2 | 6.4 | 0.00 | 0.13 | 0.13 | 76 | 1012.9 |
| 20260507173517 | 12 | 23 | 4.8 | 8.0 | 0.00 | 0.13 | 0.13 | 75 | 1013.3 |
| 20260507172517 | 13 | 0 | 3.2 | 11.3 | 0.00 | 0.13 | 0.13 | 73 | 1013.2 |
| 20260507171517 | 13 | 0 | 4.8 | 6.4 | 0.00 | 0.13 | 0.13 | 72 | 1013.4 |
| 20260507170517 | 14 | 338 | 4.8 | 8.0 | 0.00 | 0.13 | 0.13 | 70 | 1013.6 |
| 20260507165517 | 13 | 315 | 6.4 | 12.9 | 0.00 | 0.13 | 0.13 | 71 | 1013.3 |
| 20260507164517 | 13 | 0 | 4.8 | 9.7 | 0.00 | 0.13 | 0.13 | 71 | 1013.3 |
| 20260507163517 | 13 | 23 | 4.8 | 11.3 | 0.00 | 0.13 | 0.13 | 71 | 1013.5 |
| 20260507162517 | 13 | 315 | 3.2 | 9.7 | 0.00 | 0.13 | 0.13 | 72 | 1013.5 |
| 20260507161517 | 13 | 338 | 4.8 | 6.4 | 0.00 | 0.13 | 0.13 | 72 | 1013.4 |
| 20260507160517 | 13 | 315 | 3.2 | 4.8 | 0.00 | 0.13 | 0.13 | 73 | 1013.4 |
| 20260507155516 | 13 | 338 | 3.2 | 8.0 | 0.00 | 0.13 | 0.13 | 72 | 1013.4 |
| 20260507154516 | 13 | 338 | 6.4 | 12.9 | 0.00 | 0.13 | 0.13 | 72 | 1013.6 |
| 20260507153729 | 13 | 338 | 6.4 | 12.9 | 0.00 | 0.13 | 0.13 | 73 | 1013.5 |
| 20260507153516 | 13 | 338 | 6.4 | 12.9 | 0.00 | 0.13 | 0.13 | 73 | 1013.5 |
| 20260507152516 | 13 | 338 | 4.8 | 9.7 | 0.00 | 0.13 | 0.13 | 74 | 1013.8 |
| 20260507151516 | 13 | 338 | 4.8 | 9.7 | 0.00 | 0.13 | 0.13 | 71 | 1013.7 |
| 20260507150517 | 13 | 338 | 3.2 | 4.8 | 0.00 | 0.13 | 0.13 | 73 | 1013.7 |
| 20260507145516 | 13 | 338 | 3.2 | 4.8 | 0.00 | 0.13 | 0.13 | 71 | 1013.8 |
| 20260507144516 | 13 | 23 | 3.2 | 6.4 | 0.00 | 0.13 | 0.13 | 73 | 1013.8 |
| 20260507143516 | 13 | 0 | 1.6 | 4.8 | 0.00 | 0.13 | 0.13 | 72 | 1014.0 |
| 20260507142516 | 13 | 23 | 3.2 | 6.4 | 0.00 | 0.13 | 0.13 | 71 | 1014.1 |
| 20260507141516 | 13 | 0 | 4.8 | 12.9 | 0.00 | 0.13 | 0.13 | 73 | 1014.0 |
| 20260507140516 | 13 | 338 | 6.4 | 12.9 | 0.00 | 0.13 | 0.13 | 71 | 1013.9 |
| 20260507135516 | 13 | 338 | 9.7 | 14.5 | 0.00 | 0.13 | 0.13 | 71 | 1014.0 |
| 20260507134516 | 13 | 338 | 8.0 | 14.5 | 0.00 | 0.13 | 0.13 | 68 | 1014.1 |
| 20260507133516 | 13 | 338 | 4.8 | 11.3 | 0.00 | 0.13 | 0.13 | 68 | 1014.2 |
| 20260507132516 | 14 | 315 | 4.8 | 9.7 | 0.00 | 0.13 | 0.13 | 71 | 1014.5 |
| 20260507131516 | 14 | 293 | 6.4 | 12.9 | 0.00 | 0.13 | 0.13 | 65 | 1014.5 |
| 20260507130516 | 15 | 338 | 4.8 | 12.9 | 0.00 | 0.13 | 0.13 | 65 | 1014.6 |
| 20260507125516 | 14 | 338 | 4.8 | 12.9 | 0.00 | 0.13 | 0.13 | 68 | 1014.7 |
| 20260507124628 | 14 | 315 | 4.8 | 11.3 | 0.00 | 0.13 | 0.13 | 70 | 1014.6 |
| 20260507124516 | 14 | 315 | 4.8 | 11.3 | 0.00 | 0.13 | 0.13 | 70 | 1014.6 |
| 20260507123516 | 14 | 0 | 11.3 | 20.9 | 0.00 | 0.13 | 0.13 | 69 | 1014.4 |
| 20260507122516 | 14 | 23 | 3.2 | 9.7 | 0.00 | 0.13 | 0.13 | 67 | 1014.5 |
| 20260507121526 | 13 | 0 | 6.4 | 14.5 | 0.00 | 0.13 | 0.13 | 71 | 1014.8 |
| 20260507121516 | 13 | 0 | 6.4 | 14.5 | 0.00 | 0.13 | 0.13 | 71 | 1014.8 |
| 20260507120516 | 13 | 23 | 9.7 | 17.7 | 0.00 | 0.13 | 0.13 | 69 | 1014.8 |
| 20260507115516 | 13 | 315 | 9.7 | 17.7 | 0.00 | 0.13 | 0.13 | 69 | 1014.7 |
| 20260507114519 | 14 | 338 | 8.0 | 17.7 | 0.00 | 0.15 | 0.13 | 67 | 1014.9 |
| 20260507114516 | 14 | 338 | 8.0 | 17.7 | 0.00 | 0.15 | 0.13 | 67 | 1014.9 |
| 20260507113516 | 14 | 315 | 1.6 | 6.4 | 0.00 | 0.15 | 0.13 | 72 | 1014.9 |
| 20260507112516 | 13 | 225 | 4.8 | 8.0 | 0.00 | 0.15 | 0.13 | 74 | 1014.7 |
| 20260507111516 | 13 | 203 | 8.0 | 11.3 | 0.00 | 0.18 | 0.13 | 77 | 1014.8 |
| 20260507110516 | 13 | 225 | 9.7 | 14.5 | 0.00 | 0.23 | 0.13 | 75 | 1015.1 |
| 20260507105516 | 13 | 248 | 6.4 | 14.5 | 0.00 | 0.30 | 0.13 | 77 | 1015.0 |
| 20260507104516 | 13 | 315 | 1.6 | 6.4 | 0.00 | 0.33 | 0.13 | 73 | 1015.0 |
| 20260507103516 | 13 | 315 | 4.8 | 11.3 | 0.00 | 0.33 | 0.13 | 79 | 1014.8 |
| 20260507102516 | 12 | 0 | 4.8 | 8.0 | 0.00 | 0.33 | 0.13 | 77 | 1014.9 |
| 20260507101517 | 12 | 0 | 4.8 | 11.3 | 0.00 | 0.36 | 0.13 | 80 | 1014.7 |
| 20260507100516 | 12 | 45 | 4.8 | 9.7 | 0.00 | 0.38 | 0.13 | 83 | 1014.8 |
| 20260507095516 | 11 | 0 | 3.2 | 8.0 | 0.00 | 0.41 | 0.13 | 85 | 1014.6 |
| 20260507094516 | 10 | 45 | 1.6 | 4.8 | 0.00 | 0.46 | 0.13 | 86 | 1014.6 |
| 20260507093516 | 10 | 23 | 1.6 | 4.8 | 0.00 | 0.51 | 0.13 | 86 | 1014.5 |
| 20260507092516 | 9 | 45 | 3.2 | 6.4 | 0.00 | 0.56 | 0.13 | 88 | 1014.5 |
| 20260507091516 | 8 | 23 | 3.2 | 6.4 | 0.03 | 0.56 | 0.13 | 90 | 1014.1 |
| 20260507090516 | 8 | 0 | 4.8 | 11.3 | 0.03 | 0.58 | 0.13 | 89 | 1014.2 |
| 20260507085516 | 8 | 23 | 4.8 | 8.0 | 0.03 | 0.61 | 0.13 | 89 | 1014.0 |
| 20260507084516 | 8 | 45 | 4.8 | 8.0 | 0.03 | 0.61 | 0.13 | 92 | 1014.0 |
| 20260507083516 | 8 | 45 | 4.8 | 6.4 | 0.03 | 0.66 | 0.13 | 94 | 1014.0 |
| 20260507082516 | 7 | 338 | 4.8 | 6.4 | 0.03 | 0.71 | 0.13 | 95 | 1013.8 |
| 20260507081516 | 7 | 338 | 3.2 | 4.8 | 0.00 | 0.79 | 0.10 | 96 | 1014.1 |
| 20260507080516 | 7 | 0 | 1.6 | 4.8 | 0.00 | 0.79 | 0.10 | 96 | 1014.0 |
| 20260507075516 | 7 | 0 | 1.6 | 3.2 | 0.00 | 0.81 | 0.10 | 96 | 1013.9 |
| 20260507074516 | 6 | 0 | 3.2 | 4.8 | 0.00 | 0.84 | 0.10 | 97 | 1013.9 |
| 20260507073516 | 6 | 0.0 | 1.6 | 0.00 | 0.86 | 0.10 | 97 | 1013.9 | |
| 20260507072516 | 6 | 68 | 1.6 | 3.2 | 0.00 | 0.86 | 0.10 | 97 | 1013.8 |
| 20260507071516 | 6 | 68 | 3.2 | 4.8 | 0.00 | 0.89 | 0.10 | 98 | 1013.8 |
| 20260507070516 | 6 | 0.0 | 1.6 | 0.00 | 0.91 | 0.10 | 97 | 1013.6 | |
| 20260507065516 | 6 | 158 | 1.6 | 3.2 | 0.00 | 0.99 | 0.10 | 98 | 1013.5 |
| 20260507064515 | 5 | 158 | 1.6 | 3.2 | 0.00 | 1.04 | 0.10 | 98 | 1013.8 |
| 20260507063515 | 5 | 0.0 | 0.0 | 0.00 | 1.14 | 0.10 | 97 | 1013.6 | |
| 20260507062515 | 5 | 0.0 | 1.6 | 0.00 | 1.22 | 0.10 | 97 | 1013.5 | |
| 20260507061515 | 5 | 0.0 | 1.6 | 0.00 | 1.27 | 0.10 | 97 | 1013.7 | |
| 20260507060515 | 5 | 0.0 | 1.6 | 0.00 | 1.30 | 0.10 | 97 | 1013.7 | |
| 20260507055515 | 5 | 0.0 | 0.0 | 0.00 | 1.37 | 0.10 | 97 | 1013.7 | |
| 20260507054515 | 5 | 0.0 | 3.2 | 0.00 | 1.37 | 0.10 | 97 | 1014.0 | |
| 20260507053515 | 5 | 158 | 3.2 | 4.8 | 0.00 | 1.40 | 0.10 | 97 | 1013.9 |
| 20260507052515 | 5 | 158 | 3.2 | 4.8 | 0.00 | 1.40 | 0.10 | 97 | 1013.8 |
| 20260507051516 | 5 | 180 | 1.6 | 3.2 | 0.00 | 1.40 | 0.10 | 96 | 1013.9 |
| 20260507050515 | 5 | 135 | 1.6 | 3.2 | 0.00 | 1.40 | 0.10 | 97 | 1014.1 |
| 20260507045515 | 5 | 135 | 1.6 | 3.2 | 0.00 | 1.40 | 0.10 | 96 | 1014.0 |
| 20260507044517 | 5 | 0.0 | 0.0 | 0.00 | 1.40 | 0.10 | 96 | 1014.1 | |
| 20260507043517 | 6 | 0.0 | 1.6 | 0.00 | 1.45 | 0.10 | 97 | 1014.1 | |
| 20260507042517 | 6 | 0.0 | 1.6 | 0.00 | 1.45 | 0.10 | 97 | 1014.2 | |
| 20260507041517 | 6 | 135 | 1.6 | 4.8 | 0.00 | 1.47 | 0.10 | 97 | 1013.9 |
| 20260507040517 | 6 | 180 | 1.6 | 3.2 | 0.00 | 1.47 | 0.10 | 97 | 1013.9 |
| 20260507035517 | 6 | 180 | 1.6 | 3.2 | 0.00 | 1.47 | 0.10 | 97 | 1013.6 |
| 20260507034517 | 6 | 180 | 3.2 | 6.4 | 0.00 | 1.47 | 0.10 | 97 | 1013.4 |
| 20260507033519 | 6 | 203 | 3.2 | 4.8 | 0.00 | 1.47 | 0.10 | 97 | 1013.7 |
| 20260507032517 | 6 | 180 | 3.2 | 4.8 | 0.00 | 1.47 | 0.10 | 97 | 1013.6 |
| 20260507031517 | 6 | 180 | 1.6 | 3.2 | 0.00 | 1.47 | 0.10 | 97 | 1013.5 |
| 20260507030517 | 5 | 180 | 1.6 | 3.2 | 0.00 | 1.47 | 0.10 | 97 | 1013.4 |
| 20260507025517 | 5 | 0.0 | 1.6 | 0.00 | 1.47 | 0.10 | 97 | 1013.4 | |
| 20260507024517 | 5 | 180 | 1.6 | 3.2 | 0.00 | 1.47 | 0.10 | 97 | 1013.5 |
| 20260507023517 | 5 | 180 | 1.6 | 4.8 | 0.00 | 1.50 | 0.10 | 97 | 1013.4 |
| 20260507022517 | 5 | 0.0 | 3.2 | 0.00 | 1.50 | 0.10 | 97 | 1013.4 | |
| 20260507021517 | 5 | 180 | 1.6 | 3.2 | 0.00 | 1.50 | 0.10 | 97 | 1013.6 |
| 20260507020517 | 5 | 0.0 | 3.2 | 0.00 | 1.50 | 0.10 | 97 | 1013.5 | |
| 20260507015517 | 5 | 180 | 4.8 | 8.0 | 0.00 | 1.50 | 0.10 | 97 | 1013.5 |
| 20260507014517 | 5 | 203 | 1.6 | 4.8 | 0.00 | 1.50 | 0.10 | 96 | 1013.4 |
| 20260507013517 | 5 | 180 | 4.8 | 8.0 | 0.00 | 1.50 | 0.10 | 96 | 1013.4 |
| 20260507012517 | 6 | 158 | 1.6 | 3.2 | 0.00 | 1.50 | 0.10 | 96 | 1013.2 |
| 20260507011517 | 5 | 158 | 1.6 | 3.2 | 0.00 | 1.50 | 0.10 | 97 | 1013.4 |
| 20260507010517 | 5 | 0.0 | 0.0 | 0.00 | 1.50 | 0.10 | 97 | 1013.3 | |
| 20260507005517 | 5 | 203 | 1.6 | 3.2 | 0.00 | 1.50 | 0.10 | 97 | 1013.3 |
| 20260507004517 | 5 | 135 | 1.6 | 4.8 | 0.00 | 1.50 | 0.10 | 97 | 1012.9 |
| 20260507003517 | 5 | 158 | 1.6 | 4.8 | 0.00 | 1.50 | 0.10 | 97 | 1013.0 |
| 20260507002517 | 5 | 203 | 3.2 | 4.8 | 0.00 | 1.50 | 0.10 | 97 | 1013.1 |
| 20260507001517 | 5 | 203 | 1.6 | 4.8 | 0.00 | 1.50 | 0.10 | 96 | 1012.8 |
| 20260507000517 | 6 | 203 | 3.2 | 6.4 | 0.00 | 1.50 | 0.10 | 96 | 1012.9 |
| 20260506235517 | 6 | 203 | 3.2 | 4.8 | 0.00 | 1.50 | 0.10 | 96 | 1013.0 |
| 20260506234517 | 6 | 0.0 | 3.2 | 0.00 | 1.50 | 0.10 | 96 | 1012.9 | |
| 20260506233517 | 6 | 0 | 3.2 | 4.8 | 0.03 | 1.50 | 0.10 | 96 | 1013.0 |
| 20260506232517 | 6 | 23 | 1.6 | 4.8 | 0.03 | 1.50 | 0.10 | 95 | 1012.9 |
| 20260506231517 | 6 | 293 | 1.6 | 6.4 | 0.10 | 1.50 | 0.10 | 95 | 1013.1 |
| 20260506230517 | 6 | 180 | 1.6 | 3.2 | 0.10 | 1.50 | 0.10 | 95 | 1013.0 |
| 20260506225517 | 6 | 68 | 3.2 | 6.4 | 0.10 | 1.52 | 0.10 | 96 | 1013.0 |
| 20260506224517 | 6 | 225 | 3.2 | 4.8 | 0.10 | 1.52 | 0.10 | 95 | 1013.0 |
| 20260506223517 | 6 | 158 | 1.6 | 4.8 | 0.08 | 1.50 | 0.08 | 95 | 1013.0 |
| 20260506222517 | 6 | 68 | 3.2 | 6.4 | 0.08 | 1.50 | 0.08 | 96 | 1013.0 |
| 20260506221517 | 6 | 180 | 4.8 | 8.0 | 0.00 | 1.42 | 0.00 | 95 | 1012.8 |
| 20260506220517 | 6 | 203 | 1.6 | 3.2 | 0.00 | 1.42 | 0.00 | 95 | 1012.6 |
| 20260506215517 | 6 | 203 | 3.2 | 6.4 | 0.00 | 1.47 | 1.45 | 95 | 1012.4 |
| 20260506214517 | 6 | 158 | 3.2 | 8.0 | 0.00 | 1.55 | 1.45 | 95 | 1012.5 |